Ringling Museum of Art FL US WEATHERSTEM current weather conditions

sailwx.info

Wind from 076 at 0 knots gusting 1

Air temperature 14.8° C
Dewpoint 8.7° C

Last reported at 2019-Dec-06 01:50 UTC.
Time now 2019-Dec-06 03:14 UTC

Location: N 27°23' W 082°34'.
View on Google Maps.

See reports from other nearby stations

  
Tides and Currents Weather Stations Pressure Air Temp Water Temp Dewpoint Dewpoint Depression Visibility Wind Speed Wind Dir Waves Ship Positions
date/time (UTC)wind fromknots sea level pressurealtimeterstation pressurevisibilityair tempwater tempwave heightnotes
2019-Dec-06 01:50 076 0 gusting 1 14.8
2019-Dec-06 01:40 056 0 gusting 2 14.9
2019-Dec-06 01:30 054 0 gusting 1 15.1
2019-Dec-06 01:20 053 0 gusting 1 15.2
2019-Dec-06 01:10 15.3
2019-Dec-06 01:00 15.4
2019-Dec-06 00:50 052 0 gusting 0 15.6
2019-Dec-06 00:40 15.7
2019-Dec-06 00:30 15.8
2019-Dec-06 00:20 16.0
2019-Dec-06 00:10 16.2
2019-Dec-06 00:00 16.3
2019-Dec-05 23:50 046 0 gusting 1 16.5
2019-Dec-05 23:40 045 0 gusting 1 16.7
2019-Dec-05 23:30 16.9
2019-Dec-05 23:20 17.2
2019-Dec-05 23:10 17.4
2019-Dec-05 23:00 17.8
2019-Dec-05 22:50 18.2
2019-Dec-05 22:40 18.6
2019-Dec-05 22:30 19.1
2019-Dec-05 22:20 19.3
2019-Dec-05 22:10 19.6
2019-Dec-05 22:00 19.7
2019-Dec-05 21:50 046 1 gusting 4 19.8
2019-Dec-05 21:40 030 0 gusting 5 19.9
2019-Dec-05 21:30 038 2 gusting 7 19.9
2019-Dec-05 21:20 022 3 gusting 5 20.2
2019-Dec-05 21:10 005 0 gusting 6 20.2
2019-Dec-05 21:00 350 3 gusting 6 20.4
2019-Dec-05 20:50 049 2 gusting 8 20.3
2019-Dec-05 20:40 010 4 gusting 6 20.8
2019-Dec-05 20:30 026 1 gusting 7 20.6
2019-Dec-05 20:20 074 4 gusting 7 20.8
2019-Dec-05 20:10 053 0 gusting 7 21.0
2019-Dec-05 20:00 20.9
2019-Dec-05 19:50 331 5 gusting 9 20.7
2019-Dec-05 19:40 005 5 gusting 6 20.9
2019-Dec-05 19:30 005 3 gusting 7 20.8
2019-Dec-05 19:10 20.9
2019-Dec-05 19:00 036 2 gusting 8 21.1
2019-Dec-05 18:50 034 1 gusting 7 20.9
2019-Dec-05 18:40 065 3 gusting 9 20.7
2019-Dec-05 18:30 049 3 gusting 6 20.9
2019-Dec-05 18:20 060 0 gusting 9 20.6
2019-Dec-05 18:10 082 0 gusting 7 20.6
2019-Dec-05 18:00 028 1 gusting 7 20.2
2019-Dec-05 17:50 069 1 gusting 8 19.9
2019-Dec-05 17:40 071 2 gusting 8 19.7
2019-Dec-05 17:30 055 0 gusting 10 19.6
2019-Dec-05 17:20 064 2 gusting 9 19.3
2019-Dec-05 17:10 015 3 gusting 9 19.5
2019-Dec-05 17:00 021 4 gusting 9 19.4
2019-Dec-05 16:50 017 0 gusting 6 19.6
2019-Dec-05 16:40 010 3 gusting 10 19.4
2019-Dec-05 16:30 071 5 gusting 9 19.0
2019-Dec-05 16:20 019 3 gusting 11 19.0
2019-Dec-05 16:10 009 4 gusting 9 18.9
2019-Dec-05 16:00 042 3 gusting 11 18.8
2019-Dec-05 15:50 052 1 gusting 11 18.7
2019-Dec-05 15:40 045 4 gusting 8 18.2
2019-Dec-05 15:30 059 2 gusting 11 17.9
2019-Dec-05 15:20 039 10 gusting 10 17.7
2019-Dec-05 15:10 065 2 gusting 8 17.4
2019-Dec-05 15:00 056 4 gusting 8 17.0
2019-Dec-05 14:50 074 3 gusting 8 16.6
2019-Dec-05 14:40 084 7 gusting 10 16.3
2019-Dec-05 14:30 063 4 gusting 10 15.8
2019-Dec-05 14:20 074 6 gusting 10 15.4
2019-Dec-05 14:10 048 8 gusting 10 15.2
2019-Dec-05 14:00 040 3 gusting 8 14.8
2019-Dec-05 13:50 054 7 gusting 8 14.6
2019-Dec-05 13:40 075 2 gusting 6 14.3
2019-Dec-05 13:30 065 1 gusting 6 13.9
2019-Dec-05 13:20 063 0 gusting 5 13.7
2019-Dec-05 13:10 055 2 gusting 5 13.4
2019-Dec-05 13:00 13.1
2019-Dec-05 12:50 068 2 gusting 4 12.8
2019-Dec-05 12:40 057 2 gusting 3 12.7
2019-Dec-05 12:30 069 0 gusting 4 12.5
2019-Dec-05 12:20 063 3 gusting 4 12.4
2019-Dec-05 12:10 063 1 gusting 4 12.3
2019-Dec-05 12:00 091 1 gusting 4 12.4
2019-Dec-05 11:50 075 3 gusting 4 12.6
2019-Dec-05 11:40 071 4 gusting 5 12.6
2019-Dec-05 11:30 070 12.5
2019-Dec-05 11:20 072 1 gusting 2 12.3
2019-Dec-05 11:10 076 2 gusting 3 12.1
2019-Dec-05 11:00 12.0
2019-Dec-05 10:50 075 1 gusting 1 12.0
2019-Dec-05 10:40 074 1 gusting 2 12.1
2019-Dec-05 10:30 068 1 gusting 3 12.1
2019-Dec-05 10:20 069 0 gusting 1 12.1
2019-Dec-05 10:10 069 0 gusting 2 12.1
2019-Dec-05 10:00 069 0 gusting 2 12.2
2019-Dec-05 09:50 12.2
2019-Dec-05 09:40 12.2
2019-Dec-05 09:30 12.2
2019-Dec-05 09:20 12.3
2019-Dec-05 09:10 12.4
2019-Dec-05 09:00 071 0 gusting 2 12.4
2019-Dec-05 08:50 071 0 gusting 2 12.5
2019-Dec-05 08:40 071 0 gusting 1 12.4
2019-Dec-05 08:30 12.4
2019-Dec-05 08:20 12.4
2019-Dec-05 08:10 12.5
2019-Dec-05 08:00 12.6
2019-Dec-05 07:50 12.6
2019-Dec-05 07:20 071 1 gusting 2 12.2
2019-Dec-05 07:10 12.2
2019-Dec-05 07:00 12.3
2019-Dec-05 06:50 12.3
2019-Dec-05 06:40 12.4
2019-Dec-05 06:30 12.4
2019-Dec-05 06:20 12.6
2019-Dec-05 06:00 069 0 gusting 1 12.7
2019-Dec-05 05:50 069 0 gusting 2 12.8
2019-Dec-05 05:40 12.9
2019-Dec-05 05:30 12.9
2019-Dec-05 05:20 068 0 gusting 1 12.9
2019-Dec-05 05:10 13.0
2019-Dec-05 05:00 12.9
2019-Dec-05 04:50 13.1
2019-Dec-05 04:40 13.2
2019-Dec-05 04:30 068 0 gusting 1 13.2
2019-Dec-05 04:20 068 1 gusting 2 13.2
2019-Dec-05 04:10 13.3
2019-Dec-05 04:00 068 0 gusting 1 13.3
2019-Dec-05 03:50 13.5
2019-Dec-05 03:40 13.7
2019-Dec-05 03:30 13.7
2019-Dec-05 03:20 13.7
2019-Dec-05 03:10 13.8
2019-Dec-05 03:00 13.9
2019-Dec-05 02:50 14.0
2019-Dec-05 02:40 14.1
2019-Dec-05 02:30 027 0 gusting 1 14.2
2019-Dec-05 02:20 027 0 gusting 0 14.3
2019-Dec-05 02:10 14.4
2019-Dec-05 02:00 14.6
2019-Dec-05 01:50 14.7
2019-Dec-05 01:40 14.9
2019-Dec-05 01:30 14.9
2019-Dec-05 01:20 15.0
2019-Dec-05 01:10 15.1
2019-Dec-05 01:00 15.1
2019-Dec-05 00:50 15.2
2019-Dec-05 00:40 15.3
2019-Dec-05 00:30 360 0 gusting 0 15.3
2019-Dec-05 00:20 15.4
2019-Dec-05 00:10 15.5
2019-Dec-05 00:00 15.6
2019-Dec-04 23:50 15.7
2019-Dec-04 23:40 020 0 gusting 1 15.8
2019-Dec-04 23:30 360 16.0
2019-Dec-04 23:20 330 0 gusting 4 16.1
2019-Dec-04 23:10 331 1 gusting 5 16.2
2019-Dec-04 23:00 309 1 gusting 6 16.3
2019-Dec-04 22:50 355 2 gusting 5 16.6
2019-Dec-04 22:40 040 0 gusting 6 16.8
2019-Dec-04 22:30 336 0 gusting 9 17.2
2019-Dec-04 22:20 315 17.6
2019-Dec-04 22:10 292 0 gusting 6 17.9
2019-Dec-04 22:00 331 0 gusting 8 18.2
2019-Dec-04 21:50 348 5 gusting 10 18.5
2019-Dec-04 21:40 287 6 gusting 9 18.9
2019-Dec-04 21:30 346 0 gusting 8 19.1
2019-Dec-04 21:20 321 7 gusting 8 19.3
2019-Dec-04 21:10 297 1 gusting 7 19.4
2019-Dec-04 21:00 331 1 gusting 6 19.6
2019-Dec-04 20:50 039 4 gusting 6 19.6
2019-Dec-04 20:40 304 0 gusting 7 19.6
2019-Dec-04 20:30 252 1 gusting 6 19.4
2019-Dec-04 20:20 131 0 gusting 8 19.3
2019-Dec-04 20:10 360 2 gusting 9 19.4
2019-Dec-04 20:00 333 3 gusting 9 19.5
2019-Dec-04 19:50 307 4 gusting 8 19.4
2019-Dec-04 19:40 348 5 gusting 9 19.5
2019-Dec-04 19:30 036 1 gusting 8 19.4
2019-Dec-04 19:20 322 6 gusting 9 19.5
2019-Dec-04 19:10 311 4 gusting 10 19.4
2019-Dec-04 19:00 284 7 gusting 10 19.6
2019-Dec-04 18:50 304 6 gusting 13 19.7
2019-Dec-04 18:40 347 5 gusting 9 19.6
2019-Dec-04 18:30 279 8 gusting 11 19.8
2019-Dec-04 18:20 295 4 gusting 11 19.7
2019-Dec-04 18:10 290 2 gusting 10 19.6
2019-Dec-04 18:00 332 4 gusting 8 19.5
2019-Dec-04 17:50 290 6 gusting 8 19.3
2019-Dec-04 17:40 299 1 gusting 8 19.2
2019-Dec-04 17:30 350 7 gusting 9 19.2
2019-Dec-04 17:20 337 5 gusting 13 19.3
2019-Dec-04 17:10 288 2 gusting 10 19.3
2019-Dec-04 17:00 336 4 gusting 10 19.1
2019-Dec-04 16:50 032 6 gusting 10 18.9
2019-Dec-04 16:40 346 10 gusting 12 19.3
2019-Dec-04 16:30 344 1 gusting 9 19.2
2019-Dec-04 16:20 327 0 gusting 10 19.1
2019-Dec-04 16:10 005 0 gusting 10 19.0
2019-Dec-04 16:00 026 3 gusting 10 19.0
2019-Dec-04 15:50 046 2 gusting 11 18.8
2019-Dec-04 15:40 336 2 gusting 10 18.8
2019-Dec-04 15:30 286 7 gusting 8 18.8
2019-Dec-04 15:20 329 4 gusting 8 18.7
2019-Dec-04 15:10 017 6 gusting 10 18.5
2019-Dec-04 15:00 261 2 gusting 6 18.4
2019-Dec-04 14:50 18.2
2019-Dec-04 14:40 028 0 gusting 10 18.1
2019-Dec-04 14:30 011 3 gusting 8 18.2
2019-Dec-04 14:20 294 0 gusting 8 18.3
2019-Dec-04 14:10 335 1 gusting 9 18.1
2019-Dec-04 14:00 040 1 gusting 8 18.3
2019-Dec-04 13:50 338 2 gusting 8 18.1
2019-Dec-04 13:40 340 7 gusting 10 17.9
2019-Dec-04 13:30 317 0 gusting 8 17.9
2019-Dec-04 13:20 009 1 gusting 9 17.9
2019-Dec-04 13:10 027 3 gusting 8 18.0
2019-Dec-04 13:00 025 3 gusting 8 18.1
2019-Dec-04 12:50 355 2 gusting 8 17.9
2019-Dec-04 12:40 360 0 gusting 5 17.9
2019-Dec-04 12:30 336 2 gusting 5 17.9
2019-Dec-04 12:20 334 1 gusting 6 18.0
2019-Dec-04 12:10 320 4 gusting 7 18.1
2019-Dec-04 12:00 344 1 gusting 7 18.3
2019-Dec-04 11:50 320 3 gusting 7 18.6
2019-Dec-04 11:40 319 1 gusting 8 18.7
2019-Dec-04 11:30 284 2 gusting 11 18.8
2019-Dec-04 11:20 300 3 gusting 13 18.9
2019-Dec-04 11:10 286 6 gusting 12 18.7
2019-Dec-04 11:00 309 1 gusting 10 18.5
2019-Dec-04 10:50 317 3 gusting 9 18.6
2019-Dec-04 10:40 251 10 gusting 11 18.6
2019-Dec-04 10:30 235 6 gusting 13 18.7
2019-Dec-04 10:20 316 2 gusting 12 18.8
2019-Dec-04 10:10 318 6 gusting 11 18.8
2019-Dec-04 10:00 316 6 gusting 9 18.3
2019-Dec-04 09:50 300 3 gusting 10 17.3
2019-Dec-04 09:40 328 2 gusting 8 15.3
2019-Dec-04 09:30 14.6
2019-Dec-04 09:20 339 0 gusting 4 14.1
2019-Dec-04 09:10 037 0 gusting 0 13.6
2019-Dec-04 09:00 13.2
2019-Dec-04 08:50 12.9
2019-Dec-04 08:40 094 0 gusting 1 12.7
2019-Dec-04 08:30 12.7
2019-Dec-04 08:20 100 12.6
2019-Dec-04 08:10 12.7
2019-Dec-04 08:00 12.7
2019-Dec-04 07:50 12.8
2019-Dec-04 07:40 12.9
2019-Dec-04 07:30 104 1 gusting 1 12.9
2019-Dec-04 07:20 12.9
2019-Dec-04 07:10 12.9
2019-Dec-04 07:00 12.9
2019-Dec-04 06:50 076 0 gusting 3 13.1
2019-Dec-04 06:40 066 0 gusting 2 13.2
2019-Dec-04 06:30 13.2
2019-Dec-04 06:20 061 0 gusting 3 13.3
2019-Dec-04 06:10 072 0 gusting 2 13.4
2019-Dec-04 06:00 074 0 gusting 1 13.4
2019-Dec-04 05:50 13.4
2019-Dec-04 05:40 13.3
2019-Dec-04 05:30 13.2
2019-Dec-04 05:20 13.1
2019-Dec-04 05:10 13.0
2019-Dec-04 05:00 130 1 gusting 2 12.9
2019-Dec-04 04:50 12.8
2019-Dec-04 04:40 176 2 gusting 2 12.8
2019-Dec-04 04:30 12.7
2019-Dec-04 04:20 12.7
2019-Dec-04 04:10 12.5
2019-Dec-04 04:00 133 12.3
2019-Dec-04 03:50 12.2
2019-Dec-04 03:40 12.2
2019-Dec-04 03:30 12.3
2019-Dec-04 03:20 12.3
2019-Dec-04 03:10 12.4
2019-Dec-04 03:00 12.4